Погода в Волочаевке-2

Россия / Еврейская автономная область     48°33′53″N   134°34′40″E
темп.,
°C
ветер,
м/с
пор.,
м/с
влажн.,
%
обл.,
%
осадки,
мм/ч
давл.,
гПа
погр.,
м
16 мая, вс
вс1601:00+10ююз615755 0.0 1001296
04:00+9юз716725 0.0 1001419
07:00+11зюз816671 0.0 1001739
10:00+16зюз914510 0.0 10011589
13:00+18з9134145 0.0 10012405
16:00+20з811356 0.0 10002889
19:00+18з611424 0.0 1000406
22:00+13з34540 0.0 100147
17 мая, пн
пн1701:00+11зюз22570 0.0 100116
04:00+10юз33600 0.0 100121
07:00+11ю37670 0.0 1001172
10:00+18ююз69450 0.0 1000611
13:00+22юз810360 0.0 9991418
16:00+23зюз79335 0.0 9992322
19:00+22з59410 0.0 998295
22:00+16юз344688 0.0 100038
18 мая, вт
вт1801:00+14юз00589 0.0 100110
04:00+12ю227223 0.0 100122
07:00+13ю5107896 0.0 1001270
10:00+21юз71247100 0.0 1000899
13:00+26юз8133271 0.0 9982121
16:00+27ююз11173523 0.0 9962670
19:00+24ююз11184076 0.0 995866
22:00+21юз615475 0.0 997475
19 мая, ср
ср1901:00+15сз4127023 0.0 1000332
04:00+13сз4107893 0.1 1003266
07:00+14сз51067100 0.0 1005392
10:00+18сз563349 0.0 10081114
13:00+20сз472923 0.0 10082507
16:00+21зсз572795 0.0 10082591
19:00+19зюз2437100 0.0 100991
22:00+14ююз11424 0.0 101010
20 мая, чт
чт2001:00+12в224680 0.0 101116
04:00+11вюв22485 0.0 101112
07:00+13вюв22530 0.0 101079
10:00+21ю57432 0.0 1008766
13:00+25ююз8114664 0.0 10051603
16:00+26ююз8154586 0.0 10021644
19:00+25ююз9165147 0.0 1001856
22:00+21ююз7155748 0.1 1003375